User: anonymous   Login
Location: Unspecified
(0.0000°N, 0.0000°E)
Time: 06:38:06
(UTC+00:00)
Language:

FLOCK 4Q 27 - Orbit

View from above orbital plane
View from above orbital plane
View from above satellite
View from above satellite

Ground track
Ground track

The orbit is defined by the following mean orbital elements,

1 58282U          26145.58091258 +.00000000 +00000-0 +39871-3 0 00005
2 58282  97.3814 235.5148 0004914 206.9700 153.1299 15.53202671    01
Epoch (UTC): 25 May 2026 13:56:30
Eccentricity: 0.0004914
inclination: 97.3814°
perigee height: 404 km
apogee height: 411 km
right ascension of ascending node: 235.5148°
argument of perigee: 206.9700°
revolutions per day: 15.53202671
mean anomaly at epoch: 153.1299°

The dashed part of the orbit path shows where the satellite is in the earth's shadow,  

DLR